Weather History for Sioux City, IA

Change the Weather History Date:

Wednesday, January 1, 2014

  Actual Average Record
Temperature  
Mean Temperature 4 °F 20 °F  
Max Temperature 7 °F 30 °F 61 °F (1939)
Min Temperature 0 °F 10 °F -20 °F (1974)
Degree Days  
Heating Degree Days 61 45  
Month to date heating degree days 61 45  
Since 1 July heating degree days 2935 2837  
Cooling Degree Days 0 0  
Month to date cooling degree days 0 0  
Year to date cooling degree days 0 0  
Moisture  
Dew Point -2 °F    
Average Humidity 75    
Maximum Humidity 85    
Minimum Humidity 57    
Precipitation  
Precipitation 0.17 in 0.02 in 0.56 in (1960)
Month to date precipitation 0.17 0.02  
Year to date precipitation 0.17 0.02  
Snow  
Snow 1.20 in 0.20 in 5.80 in (1960)
Month to date snowfall 1.2 0.2  
Since 1 July snowfall 4.4 13.4  
Snow Depth 1.00 in    
Sea Level Pressure  
Sea Level Pressure 30.38 in    
Wind  
Wind Speed 10 mph (NNE)    
Max Wind Speed 16 mph    
Max Gust Speed 19 mph    
Visibility 6 miles    
Events Snow    
T = Trace of Precipitation, MM = Missing Value Source: NWS Daily Summary

Daily Weather History Graph

Daily Weather History Graph

Search for Another Location

Airport:

Trip Planner

Search our weather history database for the weather conditions in past years. The results will help you decide how hot, cold, wet, or windy it might be!

Date:

Astronomy

Jan. 01, 2014 Rise Set
Actual Time 7:54 AM CST 5:03 PM CST
Civil Twilight 7:23 AM CST 5:35 PM CST
Nautical Twilight 6:47 AM CST 6:10 PM CST
Astronomical Twilight 6:13 AM CST 6:44 PM CST
Moon 7:44 AM CST (1/1) 5:51 PM CST (1/1)
Length of Visible Light 10h 12m
Length of Day
9h 08m
New Moon, 0% of the Moon is Illuminated
Jan 1
New Moon
Jan 7
First Quarter
Jan 15
Full
Jan 23
Last Quarter
Jan 30
New

Hourly Weather History & Observations

Time (CST) Temp. Windchill Dew Point Humidity Pressure Visibility Wind Dir Wind Speed Gust Speed Precip Events Conditions
12:52 AM 7.0 °F -6.6 °F 1.9 °F 80% 30.28 in 3.0 mi ENE 9.2 mph - 0.00 in Snow Light Snow
1:52 AM 6.1 °F -7.8 °F 1.0 °F 80% 30.30 in 3.0 mi NNE 9.2 mph - 0.00 in Snow Light Snow
2:02 AM 6.1 °F -10.2 °F 1.0 °F 80% 30.23 in 2.5 mi NNE 12.7 mph - 0.01 in Snow Light Snow
2:07 AM 6.1 °F -9.5 °F 1.0 °F 80% 30.23 in 1.8 mi NE 11.5 mph - 0.01 in Snow Light Snow
2:52 AM 5.0 °F -12.3 °F -0.0 °F 80% 30.32 in 1.2 mi NE 13.8 mph - 0.03 in Snow Light Snow
3:48 AM 3.2 °F -12.2 °F -0.4 °F 85% 30.25 in 0.8 mi NE 10.4 mph - 0.05 in Snow Light Snow
3:52 AM 3.9 °F -12.2 °F -0.9 °F 80% 30.32 in 0.8 mi NE 11.5 mph - 0.05 in Snow Light Snow
4:17 AM 3.0 °F -12.5 °F -0.9 °F 84% 30.25 in 1.0 mi NE 10.4 mph - 0.03 in Snow Light Snow
4:52 AM 1.9 °F -12.9 °F -2.0 °F 83% 30.33 in 1.0 mi NNE 9.2 mph - 0.05 in Snow Light Snow
5:10 AM 1.9 °F -14.7 °F -2.9 °F 80% 30.25 in 1.5 mi NE 11.5 mph - 0.01 in Snow Light Snow
5:26 AM 1.9 °F -16.2 °F -2.9 °F 80% 30.24 in 2.0 mi NE 13.8 mph - 0.02 in Snow Light Snow
5:50 AM 1.4 °F -16.1 °F -2.2 °F 85% 30.23 in 1.5 mi ENE 12.7 mph - 0.03 in Snow Light Snow
5:52 AM 1.9 °F -13.8 °F -2.9 °F 80% 30.32 in 1.5 mi NE 10.4 mph - 0.03 in Snow Light Snow
6:37 AM 3.0 °F -8.0 °F -2.0 °F 80% 30.25 in 4.0 mi NE 5.8 mph - 0.01 in Snow Light Snow
6:52 AM 3.0 °F -8.0 °F -2.0 °F 80% 30.34 in 7.0 mi NE 5.8 mph - 0.01 in   Overcast
7:52 AM 3.9 °F -10.4 °F -2.0 °F 76% 30.38 in 4.0 mi NNE 9.2 mph - 0.00 in Snow Light Snow
8:52 AM 3.9 °F -12.2 °F -2.0 °F 76% 30.40 in 10.0 mi NNE 11.5 mph - 0.00 in   Overcast
9:52 AM 3.9 °F -12.2 °F -2.0 °F 76% 30.42 in 10.0 mi NNE 11.5 mph - N/A   Overcast
10:52 AM 5.0 °F -10.8 °F -2.9 °F 70% 30.44 in 10.0 mi North 11.5 mph - N/A   Overcast
11:52 AM 5.0 °F -10.8 °F -2.9 °F 70% 30.43 in 10.0 mi North 11.5 mph - N/A   Overcast
12:52 PM 6.1 °F -10.2 °F -2.0 °F 69% 30.42 in 10.0 mi North 12.7 mph - N/A   Overcast
1:52 PM 6.1 °F -10.2 °F -2.0 °F 69% 30.41 in 10.0 mi North 12.7 mph - N/A   Overcast
2:52 PM 6.1 °F -10.9 °F -2.0 °F 69% 30.42 in 10.0 mi North 13.8 mph - N/A   Overcast
3:52 PM 6.1 °F -10.2 °F -2.0 °F 69% 30.44 in 10.0 mi NNW 12.7 mph - N/A   Overcast
4:52 PM 6.1 °F -8.7 °F -2.0 °F 69% 30.46 in 10.0 mi North 10.4 mph - N/A   Overcast
5:52 PM 3.9 °F -12.2 °F -2.9 °F 73% 30.48 in 10.0 mi NNW 11.5 mph - N/A   Mostly Cloudy
6:52 PM 3.9 °F -9.4 °F -4.0 °F 70% 30.49 in 10.0 mi North 8.1 mph - N/A   Mostly Cloudy
7:52 PM 3.9 °F -9.4 °F -5.1 °F 66% 30.50 in 10.0 mi North 8.1 mph - N/A   Overcast
8:52 PM 3.9 °F -9.4 °F -4.0 °F 70% 30.51 in 10.0 mi North 8.1 mph - N/A   Overcast
9:52 PM 5.0 °F -8.1 °F -2.9 °F 70% 30.50 in 10.0 mi NNW 8.1 mph - N/A   Overcast
10:52 PM 3.9 °F -9.4 °F -2.9 °F 73% 30.49 in 10.0 mi NNW 8.1 mph - 0.00 in   Overcast
11:52 PM 1.0 °F -8.7 °F -4.0 °F 79% 30.49 in 10.0 mi NNW 4.6 mph - N/A   Clear